Regional Weather Roundup
Issued by NWS Charleston, SC

Current Version | Previous Version | Graphics & Text | Print | Product List | Glossary On
Versions: 1 2 3 4 5 6 7 8 9 10 11 12 13 14 15 16 17 18 19 20 21 22 23 24 25 26 27 28 29 30 31 32 33 34 35 36 37 38 39 40 41 42 43 44 45 46 47 48 49 50
000
ASUS42 KCHS 241112
RWRCHS

REGIONAL WEATHER ROUNDUP
NATIONAL WEATHER SERVICE CHARLESTON SC
700 AM EDT SUN MAY 24 2015

NOTE: "FAIR" INDICATES FEW OR NO CLOUDS BELOW 12,000 FEET WITH NO
SIGNIFICANT WEATHER AND/OR OBSTRUCTIONS TO VISIBILITY.

NOT ALL STATIONS ARE QUALITY CONTROLLED BY THE NATIONAL
WEATHER SERVICE. USE DATA WITH CAUTION...ESPECIALLY
DEWPOINT OBSERVATIONS.

SCZ027-030-031-034>040-042>050-241200-
...SOUTHEAST SOUTH CAROLINA...

CITY           SKY/WX    TMP DP  RH WIND       PRES   REMARKS
N CHARLESTON   PTCLDY    62  59  90 NE3       30.35R
WATERFRONT PAR   N/A     74  61  63 E15       30.31R
MOUNT PLEASANT FAIR      68  61  77 CALM      30.35R
JOHNS ISLAND   MOSUNNY   70  61  73 E8        30.35R
PINOPOLIS      NOT AVBL
MONCKS CORNER  FAIR      59  57  94 CALM      30.36R
SUMMERVILLE    FAIR      59  59 100 CALM      30.37R
BEAUFORT MCAS  CLEAR     67  62  84 N5        30.34R
BEAUFORT ARPT  FAIR      66  63  88 CALM      30.33R FOG
HILTON HEAD IS CLEAR     73  61  64 CALM      30.34R
WALTERBORO     SUNNY     59  55  88 CALM      30.36R
ALLENDALE      FAIR      63  59  88 CALM      30.35R

...SOUTHERN MIDLANDS AND PEE DEE...

CITY           SKY/WX    TMP DP  RH WIND       PRES   REMARKS
GEORGETOWN     NOT AVBL
KINGSTREE      NOT AVBL
ORANGEBURG     CLEAR     62  59  90 NE5       30.38R
BARNWELL       FAIR      63  59  88 CALM      30.37R
AIKEN          FAIR      55  54  94 CALM      30.41R
MANNING        FAIR      55  50  82 CALM      30.38R
COLUMBIA       PTCLDY    56  51  84 CALM      30.38R
SUMTER         CLEAR     58  55  92 NE5       30.38R
FLORENCE       CLEAR     59  56  89 CALM      30.39R
MYRTLE BEACH   MOCLDY    73  57  56 SE12G18   30.38S
N MYRTLE BEACH CLEAR     63  58  83 NE5       30.37R

$$

GAZ063-065-086>088-099>101-113>116-118-119-134>141-150-241200-
...SOUTHEAST GEORGIA...

CITY           SKY/WX    TMP DP  RH WIND       PRES   REMARKS
SAVANNAH ARPT  MOCLDY    64  61  90 N5        30.33R
HUNTER AAF       N/A    N/A N/A N/A MISG        N/A
FORT STEWART   CLEAR     65  62  90 CALM      30.30R
STATESBORO     MOCLDY    61  32  33 CALM      30.35R
SYLVANIA       SUNNY     63  62  97 CALM      30.36R
CLAXTON        FAIR      61  61 100 CALM      30.33R

...CSRA...CENTRAL AND FAR SOUTHEAST GEORGIA...

CITY           SKY/WX    TMP DP  RH WIND       PRES   REMARKS
THOMSON        CLEAR     59  59  99 CALM      30.41S
AUGUSTA-BUSH   CLEAR     57  56  96 CALM      30.36R
AUGUSTA-DANIEL CLEAR     66  57  72 E6        30.37R
SWAINSBORO     PTSUNNY   66  66 100 E3        30.35R
VIDALIA        PTCLDY    66  63  88 E6        30.33R
EASTMAN        FAIR      66  66 100 E5        30.35R
HAZLEHURST     FAIR      67  66  95 E5        30.31R
ALMA           CLEAR     64  62  93 CALM      30.30R
WAYCROSS       CLEAR     65  65 100 CALM      30.30R
JESUP          FAIR      68  66  94 NE3       30.31R
BAXLEY         FAIR      66  64  94 NE5       30.30S
BRUNSWICK      PTCLDY    68  63  83 NE3       30.30R
SAINT SIMONS   NOT AVBL

$$

SCZ027-028-034-036>038-045-046-048>050-GAZ119-141-241200-
...LAKE AND SUPPLEMENTAL COASTAL OBSERVATIONS...

STATION/POSITION TIME  TEMP    WIND        PRES    WAVE   SWELL
                       AIR SEA DIR/SP/G            HT/PER HT/PER/DIR
                 (UTC) (F)     (DEG/KT/KT) (MB)    (FT/S) (FT/S/D)
UPR LAKE MARION  NOT AVBL
WINYAH BAY       0945   71     110/  6     1027.0
LAKE MURRAY      1000   65      70/  2/  5 1027.8R
ACE BASIN NERRS  NOT AVBL
FORT PULASKI     1000   74 78   90/ 12/ 14 1026.9R
SAPELO ISLAND    1000   73      90/  6     1026.0R

$$

ANZ835-935-AMZ111-154-330-350-352-354-370-450-454-472-241200-
...C-MAN AND BUOY OBSERVATIONS...

STATION/POSITION TIME  TEMP    WIND        PRES    WAVE   SWELL
                       AIR SEA DIR/SP/G            HT/PER HT/PER/DIR
                 (UTC) (F)     (DEG/KT/KT) (MB)    (FT/S) (FT/S/D)
BUOY 41004       1050   74 75   90/ 14/ 17 1026.9R   5/ 5   2/ 7
BUOY 41008       1050   75 74   90/ 12/ 14 1025.8R   4/ 6   3/100/ 8
FOLLY BEACH CMAN 1100   74     100/ 13/ 15 1027.6R
CAPERS NEARSHORE 1008   74     110/ 14/ 19 1027.4
FRIPP NEARSHORE  1000   74      90/ 14/ 17 1025.7R


STATION/POSITION TIME  TEMP    WIND        PRES    WAVE   SWELL
                       AIR SEA DIR/SP/G            HT/PER HT/PER/DIR
                 (UTC) (F)     (DEG/KT/KT) (MB)    (FT/S) (FT/S/D)
5E ST. MARYS GA  1021      77                N/A     5/ 6
FRYING PAN BUOY  1050   75 73  100/ 12/ 14 1028.9R   4/ 6   3/110/ 6
BUOY 41025       1050   73 77   70/  4/  6 1029.7R   2/ 8   2/ 50/ 8
CAPE LOOKOUT NC  1100   73     100/  4/  5 1029.1R
BUOY 41002       1050   72 74   70/ 19/ 23 1027.4R   6/ 7
BUOY 41010       1020   78 80   70/ 14/ 17 1023.2R
ST AUGUSTINE FL  1100   76 75   80/ 15/ 17 1025.2R


$$


USA.gov is the U.S. government's official web portal to all federal, state and local government web resources and services.